Dewpoint
50 48 48 48 48 47 47 46 47 46 45 44 41 41 41 41 40 40 42 41 39 36 35 35 33 32 33 33 34 32 32 33
49 45 44 45 47 46 46 45 46 44 42 40 39 38 39 40 40 41 41 39 39 37 34 34 33 33 34 35 33 33 29 32
45 42 44 44 45 45 45 44 45 43 41 39 39 39 39 40 39 40 40 39 39 36 35 33 33 32 34 34 34 32 29 31
44 42 43 43 43 45 44 43 43 43 41 39 39 40 40 39 39 38 38 38 38 37 36 34 34 33 32 33 32 31 28 29
44 42 42 43 43 44 44 43 43 42 41 39 39 37 36 38 37 37 37 37 37 37 36 34 34 33 33 31 30 30 28 27
43 41 42 41 43 43 43 43 43 42 41 40 39 38 37 38 37 37 36 36 36 35 35 34 34 32 32 30 28 25 23 23
42 40 41 40 43 43 43 43 41 41 41 41 40 39 37 37 36 35 34 34 34 35 33 33 34 32 30 27 26 24 23 23
40 37 38 39 40 42 42 41 41 40 40 40 39 39 38 37 36 35 34 33 33 33 33 33 32 31 29 27 25 23 22 21
39 37 37 38 40 41 40 40 40 39 40 40 40 38 37 37 36 35 33 32 33 33 31 32 33 31 29 27 23 22 22 21
36 37 37 38 39 39 39 38 38 39 39 39 38 38 38 37 37 36 34 33 32 32 31 30 32 30 28 26 22 21 21 21
36 35 37 38 38 37 39 38 37 37 38 38 37 37 37 37 37 35 34 33 32 31 29 29 30 29 27 25 22 21 19 20
35 35 36 37 37 36 38 38 36 36 37 37 37 37 37 37 36 35 33 33 32 30 28 28 30 29 27 23 22 20 18 17
35 35 36 36 36 35 35 38 36 36 36 36 37 36 36 36 35 34 34 32 31 29 28 28 29 28 26 23 20 19 18 16
35 35 35 36 36 36 35 36 35 34 34 36 36 35 35 34 34 34 33 31 30 28 28 29 28 27 25 23 21 20 18 17
35 36 35 37 37 37 35 37 37 35 34 34 35 34 36 35 34 33 33 31 29 28 28 29 28 26 24 22 21 20 19 17
34 35 35 35 35 36 35 35 35 34 33 34 35 35 34 34 34 33 33 31 29 29 28 29 28 26 23 25 22 21 19 19
33 34 35 35 34 35 36 36 35 34 33 33 33 34 33 33 33 32 32 31 30 29 29 28 27 21 25 24 24 22 18 16
33 34 35 36 36 35 35 36 35 34 33 32 33 33 33 33 32 30 31 31 32 31 28 27 25 25 26 24 20 21 20 20
33 34 35 37 37 36 36 36 34 34 32 32 32 33 33 34 32 32 32 32 31 29 26 25 24 24 26 24 20 14 16 19
Lifted_Index
-1 -1 -2 -2 -2 -2 -2 -1 1 3 6 9 11 12 13 13 14 15 15 16 15 15 16 16 16 16 15 15 15 15 15 15
-0 -1 -2 -2 -2 -2 -2 -0 1 3 6 8 11 12 12 13 14 15 15 16 16 16 16 16 16 15 15 15 15 15 15 15
-0 -1 -2 -2 -2 -2 -1 1 2 4 6 9 11 12 12 13 14 15 15 16 16 15 15 15 15 15 15 15 15 15 15 15
0 -1 -2 -2 -2 -2 -0 2 3 5 7 9 11 12 12 12 13 14 15 15 15 15 15 15 15 15 15 15 15 15 15 15
1 1 -1 -2 -2 -1 0 2 4 6 8 10 11 11 11 12 12 13 14 15 15 15 15 15 15 15 15 15 15 15 15 15
3 2 1 0 -1 -0 1 2 4 6 8 10 10 11 11 12 12 13 14 14 15 15 15 15 15 15 15 15 16 16 16 15
4 4 3 2 1 0 1 2 4 6 8 10 10 11 11 11 12 12 13 13 14 14 15 15 15 16 16 16 16 16 16 16
5 5 4 4 3 2 1 2 4 5 7 9 10 11 11 11 11 12 12 13 13 14 15 15 15 16 16 16 17 17 17 17
4 5 5 4 4 3 2 2 4 5 7 8 10 10 11 11 12 12 13 13 14 15 15 15 15 16 16 17 17 17 17 18
5 5 5 5 5 4 4 4 4 6 7 8 9 10 11 11 12 13 14 14 14 15 15 15 15 16 17 17 17 18 18 18
6 5 5 5 5 5 6 5 6 6 7 8 9 10 11 12 13 14 14 14 14 14 14 14 15 16 17 17 17 18 18 18
6 6 6 5 5 6 6 6 6 7 7 8 9 10 11 12 13 14 14 14 14 14 14 14 15 16 17 17 17 18 18 18
7 7 6 6 5 5 6 6 7 7 7 8 9 11 12 13 13 14 14 14 14 14 15 15 15 16 17 17 18 18 18 18
7 7 6 6 5 5 5 6 7 7 7 8 10 11 12 13 13 14 14 14 15 15 15 16 16 17 17 18 18 18 18 19
7 6 6 5 5 4 4 5 6 7 8 8 10 11 11 13 14 14 15 15 15 15 16 16 17 17 18 18 18 18 19 19
6 5 5 4 4 3 3 4 6 7 7 8 9 10 11 13 14 14 15 16 16 16 16 16 17 18 18 18 18 19 19 19
5 5 4 4 3 3 3 3 5 6 7 8 9 10 11 13 14 15 15 16 16 15 16 16 17 18 18 18 19 19 19 19
4 4 4 4 3 3 3 3 4 5 6 8 9 10 11 12 13 15 15 15 14 14 15 16 17 17 18 18 19 19 19 19
4 4 4 4 4 4 3 4 4 5 6 7 9 10 11 12 13 14 15 14 13 14 15 16 17 17 18 18 19 20 20 19